Regional Weather Roundup
Issued by NWS Charleston, SC

Current Version | Previous Version | Graphics & Text | Print | Product List | Glossary On
Versions: 1 2 3 4 5 6 7 8 9 10 11 12 13 14 15 16 17 18 19 20 21 22 23 24 25 26 27 28 29 30 31 32 33 34 35 36 37 38 39 40 41 42 43 44 45 46 47 48 49 50
000
ASUS42 KCHS 181211
RWRCHS

REGIONAL WEATHER ROUNDUP
NATIONAL WEATHER SERVICE CHARLESTON SC
800 AM EDT SAT APR 18 2015

NOTE: "FAIR" INDICATES FEW OR NO CLOUDS BELOW 12,000 FEET WITH NO
SIGNIFICANT WEATHER AND/OR OBSTRUCTIONS TO VISIBILITY.

NOT ALL STATIONS ARE QUALITY CONTROLLED BY THE NATIONAL
WEATHER SERVICE. USE DATA WITH CAUTION...ESPECIALLY
DEWPOINT OBSERVATIONS.

SCZ027-030-031-034>040-042>050-181300-
...SOUTHEAST SOUTH CAROLINA...

CITY           SKY/WX    TMP DP  RH WIND       PRES   REMARKS
N CHARLESTON   PTSUNNY   68  66  93 CALM      29.99R FOG
6HR MIN TEMP:  66; 6HR MAX TEMP:  68; 6HR PCP:  0.11;

WATERFRONT PRK   N/A     66 N/A N/A CALM        N/A
MOUNT PLEASANT FAIR      66  66 100 CALM      29.99R FOG
PINOPOLIS      NOT AVBL
MONCKS CORNER  CLOUDY    68  66  94 CALM      29.99R FOG
SUMMERVILLE    CLOUDY    66  66 100 CALM      30.00R FOG
BEAUFORT MCAS  LGT RAIN  69  67  93 CALM      29.99R FOG
6HR MIN TEMP:  68; 6HR MAX TEMP:  69; 6HR PCP:  0.14;

BEAUFORT ARPT  CLOUDY    68  68 100 CALM      29.99R FOG
HILTON HEAD IS CLOUDY    68  68 100 CALM      30.00R FOG
WALTERBORO     LGT RAIN  64  64 100 CALM      30.00S
ALLENDALE      CLOUDY    66  66 100 E3        29.98S FOG

...SOUTHERN MIDLANDS AND PEE DEE...

CITY           SKY/WX    TMP DP  RH WIND       PRES   REMARKS
GEORGETOWN     NOT AVBL
KINGSTREE      NOT AVBL
ORANGEBURG     LGT RAIN  66  63  90 NE3       29.99F FOG
6HR MIN TEMP:  65; 6HR MAX TEMP:  66; 6HR PCP:  0.24;

BARNWELL       PTSUNNY   66  66 100 E3        30.00R
AIKEN          CLOUDY    48  46  93 NE3       30.03R FOG
MANNING        NOT AVBL
COLUMBIA       CLOUDY    67  63  87 CALM      30.00R
6HR MIN TEMP:  66; 6HR MAX TEMP:  67; 6HR PCP:  0.01;

SUMTER         CLOUDY    65  64  96 N6        29.99R
6HR MIN TEMP:  64; 6HR MAX TEMP:  66; 6HR PCP:  0.01;

FLORENCE       LGT RAIN  65  63  93 NE3       30.00S FOG
6HR MIN TEMP:  65; 6HR MAX TEMP:  67; 6HR PCP:  1.01;

MYRTLE BEACH   RAIN      66  64  94 N5        30.01R FOG
N MYRTLE BEACH RAIN      66  65  96 N5        29.98S FOG
6HR MIN TEMP:  66; 6HR MAX TEMP:  67; 6HR PCP:  0.26;


$$

GAZ063-065-086>088-099>101-113>116-118-119-134>141-150-181300-
...SOUTHEAST GEORGIA...

CITY           SKY/WX    TMP DP  RH WIND       PRES   REMARKS
SAVANNAH ARPT  CLOUDY    68  67  96 CALM      29.99R FOG
6HR MIN TEMP:  67; 6HR MAX TEMP:  68; 6HR PCP:  0.16;

HUNTER AAF     CLOUDY    68  68 100 S3        29.96R
6HR MIN TEMP:  67; 6HR MAX TEMP:  68; 6HR PCP:  0.15;

FORT STEWART   CLOUDY    67  66  96 E3        29.96R FOG
6HR MIN TEMP:  67; 6HR MAX TEMP:  67; 6HR PCP:  0.02;

STATESBORO     DRIZZLE   67  67 100 CALM      29.98R
SYLVANIA       RAIN      67  67 100 CALM      29.99S VSB 1/4
CLAXTON        CLOUDY    66  66 100 CALM      29.98R FOG

...CSRA...CENTRAL AND FAR SOUTHEAST GEORGIA...

CITY           SKY/WX    TMP DP  RH WIND       PRES   REMARKS
THOMSON        CLOUDY    66  66 100 CALM      30.03S
AUGUSTA-BUSH   HVY RAIN  65  65 100 VRB6      29.98R FOG
6HR MIN TEMP:  64; 6HR MAX TEMP:  66; 6HR PCP:  0.22;

AUGUSTA-DANIEL LGT RAIN  66  64  93 NE5       30.00R FOG
SWAINSBORO     LGT RAIN  68  68 100 SE7       29.98S
VIDALIA        RAIN      68  66  94 S5        29.97S
EASTMAN        CLOUDY    68  68 100 CALM      29.98S FOG
HAZLEHURST     CLOUDY    68  68 100 CALM      29.96S FOG
ALMA           CLOUDY    67  66  97 CALM      29.96S FOG
6HR MIN TEMP:  67; 6HR MAX TEMP:  68;

WAYCROSS       CLOUDY    71  70  98 CALM      29.97S FOG
JESUP          CLOUDY    70  68  94 CALM      29.98S FOG
BAXLEY         CLOUDY    68  68 100 SE3       29.97S
BRUNSWICK      PTSUNNY   68  64  88 SE3       29.99R
SAINT SIMONS   CLOUDY    68  67  96 SE5       29.98S
6HR MIN TEMP:  66; 6HR MAX TEMP:  68;


$$

SCZ027-028-034-036>038-045-046-048>050-GAZ119-141-181300-
...LAKE AND SUPPLEMENTAL COASTAL OBSERVATIONS...

STATION/POSITION TIME  TEMP    WIND        PRES    WAVE   SWELL
                       AIR SEA DIR/SP/G            HT/PER HT/PER/DIR
                 (UTC) (F)     (DEG/KT/KT) (MB)    (FT/S) (FT/S/D)
UPR LAKE MARION  NOT AVBL
WINYAH BAY       NOT AVBL
LAKE MURRAY      1100   64        CALM     1014.9S
ACE BASIN NERRS  NOT AVBL
FORT PULASKI     1100   67 71  130/  2/  3 1015.1R
SAPELO ISLAND    1100   67     130/  1     1015.0R

$$

ANZ835-935-AMZ111-154-330-350-352-354-370-450-454-472-181300-
...C-MAN AND BUOY OBSERVATIONS...

STATION/POSITION TIME  TEMP    WIND        PRES    WAVE   SWELL
                       AIR SEA DIR/SP/G            HT/PER HT/PER/DIR
                 (UTC) (F)     (DEG/KT/KT) (MB)    (FT/S) (FT/S/D)
BUOY 41004       1150   70 75  350/  8/  8 1014.4R   4/ 9   3/ 9
BUOY 41008       1150   66 67  170/  6/  8 1015.4R   2/ 9   2/ 80/ 9
FOLLY BEACH CMAN 1100   66     320/  2/  3 1015.1R
CAPERS NEARSHORE NOT AVBL
FRIPP NEARSHORE  1100   67      70/  4/  6 1014.4R


STATION/POSITION TIME  TEMP    WIND        PRES    WAVE   SWELL
                       AIR SEA DIR/SP/G            HT/PER HT/PER/DIR
                 (UTC) (F)     (DEG/KT/KT) (MB)    (FT/S) (FT/S/D)
5E ST. MARYS GA  1121      70                N/A     3/ 9
FRYING PAN BUOY  1150   72 74   30/  4/  4 1014.9R   4/ 9   3/100/ 9
BUOY 41025       1150   70 75  350/  8/  8 1015.6R   5/ 7   5/110/ 7
CAPE LOOKOUT NC  1100   67      30/  3/  4 1015.2R
BUOY 41002       1150   72 73  230/  6/  8 1014.6R   6/ 8   5/100/ 8
BUOY 41010       1120   78 78  220/ 10/ 12 1015.1R
ST AUGUSTINE FL  1200   69 69  200/  5/  6 1015.6R


$$



USA.gov is the U.S. government's official web portal to all federal, state and local government web resources and services.